CW2971 Weather Reports


time (UTC)temp
C
wind
direction
speed
KPH
gust
KPH
rain 1hr
cm
rain 24hr
cm
rain mn
cm
humidity
%
barometer
mb
20260507183027 11 0 0.0 12.9 0.20 3.30 3.30 89 1009.0
20260507181528 10 0 0.0 4.8 0.25 3.30 3.30 89 1008.3
20260507180029 11 345 0.0 1.6 0.25 3.25 3.25 89 1008.2
20260507174544 11 0 0.0 4.8 0.25 3.20 3.20 89 1009.4
20260507173029 11 0 0.0 0.0 0.18 3.10 3.10 89 1009.5
20260507171541 11 0 1.6 6.4 0.23 3.05 3.05 89 1009.9
20260507170028 11 0 1.6 8.0 0.30 2.97 2.97 89 1009.9
20260507164528 11 91 0.0 3.2 0.53 2.95 2.95 89 1009.8
20260507163027 11 0 0.0 3.2 0.79 2.92 2.92 90 1009.9
20260507161527 11 0 0.0 12.9 0.89 2.82 2.82 89 1009.6
20260507160031 11 105 0.0 12.9 0.97 2.64 2.64 89 1009.7
20260507154530 12 94 0.0 4.8 0.94 2.41 2.41 88 1009.6
20260507153029 12 91 0.0 14.5 0.71 2.13 2.13 89 1009.7
20260507151527 12 51 0.0 8.0 0.53 1.93 1.93 89 1009.9
20260507150036 13 73 0.0 9.7 0.33 1.70 1.70 89 1009.7
20260507144528 13 79 1.6 12.9 0.15 1.45 1.45 89 1009.8
20260507143028 13 153 1.6 9.7 0.13 1.42 1.42 89 1009.5
20260507141528 14 86 1.6 8.0 0.15 1.40 1.40 89 1009.5
20260507140037 14 333 1.6 14.5 0.18 1.32 1.32 89 1009.3
20260507134530 15 91 1.6 6.4 0.15 1.30 1.30 89 1009.1
20260507133033 15 0 0.0 6.4 0.18 1.30 1.30 89 1009.1
20260507131558 15 76 0.0 11.3 0.20 1.24 1.24 89 1009.3
20260507130029 15 295 0.0 17.7 0.36 1.17 1.17 89 1009.5
20260507124530 15 71 1.6 16.1 0.46 1.14 1.14 89 1009.5
20260507123030 15 14 0.0 11.3 0.56 1.12 1.12 88 1009.5
20260507121528 15 81 1.6 12.9 0.69 1.04 1.04 87 1009.5
20260507120033 17 66 9.7 27.4 0.61 0.81 0.81 84 1009.2
20260507114527 18 311 1.6 4.8 0.51 0.69 0.69 88 1009.1
20260507113058 18 345 4.8 6.4 0.41 0.53 0.53 88 1008.8
20260507111532 18 0 0.0 3.2 0.33 0.36 0.36 88 1009.0
20260507110031 18 299 1.6 4.8 0.18 0.20 0.20 87 1008.8
20260507104527 18 286 1.6 6.4 0.15 0.18 0.18 86 1008.7
20260507103029 19 0 0.0 6.4 0.08 0.10 0.10 84 1008.7
20260507101527 19 231 3.2 8.0 0.00 0.03 0.03 82 1008.2
20260507100038 19 285 3.2 9.7 0.00 0.03 0.03 81 1007.9
20260507094528 19 234 3.2 9.7 0.00 0.03 0.03 81 1007.9
20260507093034 20 9 3.2 6.4 0.00 0.03 0.03 80 1007.7
20260507091534 20 311 3.2 12.9 0.00 0.03 0.03 79 1007.8
20260507090028 20 242 4.8 14.5 0.00 0.03 0.03 79 1008.0
20260507084544 20 242 6.4 14.5 0.00 0.03 0.03 78 1008.2
20260507083030 20 271 3.2 11.3 0.00 0.03 0.03 77 1008.4
20260507081528 20 230 3.2 11.3 0.00 0.03 0.03 77 1008.6
20260507080030 20 0 0.0 11.3 0.00 0.03 0.03 77 1008.6
20260507074528 20 0 1.6 6.4 0.00 0.03 0.03 78 1009.0
20260507073030 20 0 3.2 17.7 0.00 0.03 0.03 78 1008.7
20260507071532 19 212 3.2 9.7 0.03 0.03 0.03 79 1008.7
20260507070030 19 241 1.6 8.0 0.03 0.03 0.03 79 1008.7
20260507064533 19 0 0.0 4.8 0.03 0.03 0.03 79 1008.1
20260507063028 20 210 0.0 9.7 0.03 0.03 0.03 78 1008.0
20260507061535 20 0 0.0 9.7 0.00 0.00 0.00 77 1009.2
20260507060036 20 0 0.0 6.4 0.00 0.00 0.00 76 1009.5
20260507054538 20 259 1.6 6.4 0.00 0.00 0.00 74 1009.7
20260507053031 21 256 3.2 9.7 0.00 0.00 0.00 72 1009.7
20260507051530 21 222 0.0 6.4 0.00 0.00 0.00 70 1009.8
20260507050049 21 0 1.6 6.4 0.00 0.00 0.00 69 1009.5
20260507044528 21 0 1.6 11.3 0.00 0.00 0.00 69 1009.3
20260507043028 21 238 0.0 12.9 0.00 0.00 0.00 69 1009.6
20260507041527 21 211 3.2 11.3 0.00 0.00 0.00 69 1009.7
20260507040028 21 243 1.6 9.7 0.00 0.00 0.00 69 1009.5
20260507034535 21 0 0.0 6.4 0.00 0.00 0.00 70 1009.1
20260507033038 21 207 1.6 4.8 0.00 0.00 0.00 70 1009.2
20260507031533 22 0 1.6 6.4 0.00 0.00 0.00 69 1009.3
20260507030035 22 0 0.0 3.2 0.00 0.00 0.00 69 1009.3
20260507024535 22 0 0.0 6.4 0.00 0.00 0.00 70 1009.5
20260507023026 22 0 0.0 3.2 0.00 0.00 0.00 70 1009.8
20260507021544 22 0 0.0 4.8 0.00 0.00 0.00 70 1009.8
20260507020028 22 37 1.6 6.4 0.00 0.00 0.00 70 1009.8
20260507014527 23 0 0.0 3.2 0.00 0.00 0.00 70 1010.0
20260507013033 23 0 0.0 6.4 0.00 0.00 0.00 68 1009.6
20260507011532 23 223 0.0 4.8 0.00 0.00 0.00 66 1009.8
20260507010039 23 175 1.6 6.4 0.00 0.00 0.00 64 1009.8
20260507004528 23 0 0.0 6.4 0.00 0.00 0.00 63 1009.7
20260507003029 23 218 1.6 3.2 0.00 0.00 0.00 63 1009.5
20260507001530 23 237 0.0 6.4 0.00 0.00 0.00 61 1009.3
20260507000033 24 0 0.0 6.4 0.00 0.00 0.00 60 1009.1
20260506234530 24 228 1.6 9.7 0.00 0.00 0.00 59 1009.0
20260506233028 25 257 1.6 9.7 0.00 0.00 0.00 58 1008.8
20260506231530 25 258 1.6 12.9 0.00 0.00 0.00 58 1008.8
20260506230029 25 270 1.6 8.0 0.00 0.00 0.00 57 1008.6
20260506224530 25 307 3.2 11.3 0.00 0.00 0.00 57 1008.5
20260506223030 25 221 4.8 17.7 0.00 0.00 0.00 57 1008.5
20260506221527 25 258 4.8 16.1 0.00 0.00 0.00 58 1008.5
20260506220034 25 252 1.6 12.9 0.00 0.00 0.00 58 1008.5
20260506214531 25 194 8.0 20.9 0.00 0.00 0.00 57 1008.4
20260506213031 25 103 6.4 12.9 0.00 0.00 0.00 58 1008.1
20260506211530 25 302 4.8 19.3 0.00 0.00 0.00 57 1008.3
20260506210034 25 230 4.8 17.7 0.00 0.00 0.00 57 1008.6
20260506204546 25 249 6.4 22.5 0.00 0.00 0.00 57 1008.8
20260506203030 25 265 4.8 17.7 0.00 0.00 0.00 58 1009.2
20260506201534 25 113 6.4 16.1 0.00 0.00 0.00 59 1009.3
20260506200033 26 234 8.0 20.9 0.00 0.00 0.00 57 1009.8
20260506194530 25 288 8.0 27.4 0.00 0.00 0.00 59 1010.0
20260506193027 25 188 6.4 14.5 0.00 0.00 0.00 58 1010.0
20260506191527 25 178 6.4 14.5 0.00 0.00 0.00 59 1010.1
20260506190028 24 245 6.4 19.3 0.00 0.00 0.00 60 1010.3
20260506184528 25 291 4.8 20.9 0.00 0.00 0.00 59 1010.4